Portada
METAR-TAF:

METAR-TAF

Aeroports :

NWS Office

Majuro, Illes Marshall

latitud: 07-05N, longitud: 171-12E, altitud: 4 m

Observació

L'informe es va fer fa 40 minuts, a les 11:51 UTC
Vent 10 kt del Est
Temperatura 28°C
Humitat 84%
Pressió 1012 hPa
Visibilitat: 24.1 km
Núvols disperses a una alçada de 1500 ft
Cel ennuvolat a una alçada de 5000 ft
Cel ennuvolat a una alçada de 12000 ft
Cel cobert a una alçada de 30000 ft

METAR: PKMR 251151Z 08010KT 15SM SCT015 BKN050 BKN120 OVC300 28/25 A2988 RMK RAE43 SLP120 60009 70013 8/878 T02800248 10284 20271 50003

Hora: 00:31 (12:31 UTC)


TAF: manca

Observacions i pronòstics meteorològics de més de 4000 aeroports (METAR i TAF).

Les estacions disponibles són els punts grocs i vermells al mapa.

Posi el ratolí al punt desitjat per veure el nom de l'estació.

Feu clic per veure les observacions i els pronòstics meteorològics.

Per canviar el mapa: feu clic els botons verds amb una creu de color negre per apropar; al botó verd amb un guió per allunyar la imatge; o en les fletxes verdes per a mapes adjacents.


METAR-TAF: